Starlink 3872

operational
NORAD ID: 52453 Int'l Des: 2022-049 Owner: SPXS Country: US Constellation: starlink
LEOCIRCULAR

关于 Starlink 3872

正在加载描述...

实时位置

正在加载3D地球...

即将过境

高度历史

Altitude vs Time

uPlot chart will show altitude changes over time

两行轨道根数

1 52453U 22049C 26037.70422024 .00001350 00000-0 10292-3 0 9991
2 52453 53.2169 208.2226 0001348 88.0119 272.1027 15.08825321207434
Epoch: Feb 6, 2026 • Age: 8 hours

当前状态

高度 555.1 km
速度 7.58 km/s
星下点 -43.32°S, 16.25°E
发射日期 May 6, 2022
运行时间 3.7 years
类型 internet

技术详情

分类 Payload
质量 297.00 kg
干质量 220.00 kg
总质量 297.00 kg
长度 0.20 m
直径 2.80 m
跨度 9.00 m
形状 Box + pan
制造商 SPXS
平台类型 Starlink
阶段状态 In Orbit
所有者/国家 SPXS/US

大型星座

Loading constellations...